Regional Weather Roundup
Issued by NWS

Home | Current Version | Previous Version | Graphics & Text | Print | Product List | Glossary On
Versions: 1 2 3 4 5 6 7 8 9 10 11 12 13 14 15 16 17 18 19 20 21 22 23 24 25 26 27 28 29 30 31 32 33 34 35 36 37 38 39 40 41 42 43 44 45 46 47 48 49 50
000
ASUS43 KMKX 282220
RWRWI

WISCONSIN REGIONAL WEATHER ROUNDUP
NATIONAL WEATHER SERVICE MILWAUKEE/SULLIVAN WI
500 PM CDT SAT MAR 28 2015

NOTE: "FAIR" INDICATES FEW OR NO CLOUDS BELOW 12,000 FEET WITH NO
SIGNIFICANT WEATHER AND/OR OBSTRUCTIONS TO VISIBILITY.

WIZ001-002-006>008-014>016-023>028-282300-
NORTHWEST WISCONSIN

CITY           SKY/WX    TMP DP  RH WIND       PRES   REMARKS
SUPERIOR ARPT  SUNNY     45   8  22 SW17      30.05F
ASHLAND        SUNNY     44   7  21 SW15      30.07F
HAYWARD        SUNNY     41   9  26 SW12      30.08F
SIREN          SUNNY     42  11  27 S16       30.09F
CUMBERLAND     SUNNY     39  12  33 SW16      30.10F WCI  30
RICE LAKE      SUNNY     42   6  23 S14       30.13F
CHETEK         SUNNY     41   8  25 S13G18    30.12F
LADYSMITH      SUNNY     41  11  28 S13       30.13F
EAU CLAIRE     SUNNY     41   8  25 SW12      30.15F
MENOMONIE      SUNNY     41  11  29 S10G20    30.14F
NEW RICHMOND   SUNNY     40  12  32 SW17      30.12F WCI  31
OSCEOLA        SUNNY     42  13  30 S17G23    30.14F
$$

WIZ003>005-009-010-017-018-282300-
NORTH CENTRAL WISCONSIN

CITY           SKY/WX    TMP DP  RH WIND       PRES   REMARKS
MANITOWISH WTR SUNNY     39   9  29 SW13      30.08F WCI  32
ARBOR VITAE    SUNNY     39  10  29 SW15      30.09F WCI  31
WOODRUFF       SUNNY     39  10  29 SW15      30.09F WCI  31
RHINELANDER    SUNNY     38   9  30 SW10G22   30.12F WCI  31
EAGLE RIVER    SUNNY     38   6  26 SW14      30.10S WCI  30
LAND O LAKES   SUNNY     40   5  23 S9        30.08F WCI  34
PHILLIPS       SUNNY     39  11  31 S12G17    30.09F WCI  32
TOMAHAWK       SUNNY     37  11  33 CALM      30.13F
MEDFORD        SUNNY     37  13  37 S10G16    30.13F WCI  30
MERRILL        SUNNY     39  12  33 SW8       30.14F WCI  34
$$

WIZ029-030-035-036-043>047-282300-
CENTRAL WISCONSIN

CITY           SKY/WX    TMP DP  RH WIND       PRES   REMARKS
WAUSAU         SUNNY     39  10  30 SW10      30.14F WCI  32
MOSINEE        SUNNY     37  10  32 S10       30.17F WCI  30
MARSHFIELD     SUNNY     42   8  24 S15       30.15F
STEVENS POINT  SUNNY     38   6  25 SW9       30.17F WCI  32
WAUPACA        SUNNY     44   2  18 SW6       30.19F
WAUTOMA        SUNNY     41   6  23 SW10G17   30.21F
WISC RAPIDS    SUNNY     41   5  22 SW9       30.19F
CAMP DOUGLAS   SUNNY     41   9  27 S9        30.19F
$$

WIZ011>013-019>022-031-037>040-048>050-282300-
NORTHEAST WISCONSIN

CITY           SKY/WX    TMP DP  RH WIND       PRES   REMARKS
ANTIGO         SUNNY     36  15  41 W12       30.15S WCI  28
SHAWANO        SUNNY     42  10  27 SW6       30.19F
OCONTO         SUNNY     39  12  33 SW9       30.21F WCI  33
STURGEON BAY   SUNNY     32  21  64 SE13      30.25S WCI  22
GREEN BAY      SUNNY     38  18  44 S6        30.22F WCI  33
MANITOWOC      SUNNY     32  23  69 S13       30.26F WCI  22
APPLETON       SUNNY     37  10  32 S7        30.22F WCI  32
CLINTONVILLE   SUNNY     41   7  24 SW8       30.19F
OSHKOSH        SUNNY     39  11  31 S8        30.22F WCI  33
$$

WIZ032>034-041-042-053>061-282300-
SOUTHWEST WISCONSIN

CITY           SKY/WX    TMP DP  RH WIND       PRES   REMARKS
LA CROSSE      SUNNY     42  10  27 S16       30.21F
SPARTA         SUNNY     41  10  28 S16       30.20F
VIROQUA        SUNNY     37  14  38 S9        30.19F WCI  31
BOSCOBEL       SUNNY     40  14  34 VRB3      30.23F
PRAIRIE DU CHI SUNNY     40  10  28 SE5G16    30.21F
PLATTEVILLE    SUNNY     40  14  35 SE8       30.22F WCI  34
$$

WIZ056-057-062-063-064-067-068-282300-
SOUTH CENTRAL WISCONSIN

CITY           SKY/WX    TMP DP  RH WIND       PRES   REMARKS
REEDSBURG      SUNNY     38  11  31 SW13      30.22F WCI  31
BARABOO/DELLS  SUNNY     39  10  30 SW5       30.21F
LONE ROCK      SUNNY     39  13  34 SW8G18    30.24F WCI  33
MINERAL POINT  SUNNY     37  14  38 E3        30.22F
MADISON        SUNNY     37   9  31 S9        30.24F WCI  30
MIDDLETON      SUNNY     40  10  29 SW9       30.24F WCI  34
WATERTOWN      SUNNY     39  13  34 SW12      30.24F WCI  31
MONROE         SUNNY     37  14  38 SW8       30.24F WCI  31
JANESVILLE     SUNNY     39   7  26 SW6       30.25F WCI  35
$$

WIZ051-052-058>065-066-070>072-282300-
SOUTHEAST WISCONSIN

CITY           SKY/WX    TMP DP  RH WIND       PRES   REMARKS
MILWAUKEE      MOSUNNY   33  11  39 SE15      30.27F WCI  23
WAUKESHA       SUNNY     37  10  32 SW9       30.25F WCI  31
MILWAUKEE/TIMM SUNNY     34  10  37 E10G17    30.26F WCI  26
RACINE         SUNNY     31  12  45 S13       30.30F WCI  21
BURLINGTON     SUNNY     38  10  32 SW5       30.25F WCI  34
KENOSHA        SUNNY     33  13  43 SE13      30.28F WCI  24
FOND DU LAC    SUNNY     39  11  31 S9        30.23F WCI  33
SHEBOYGAN      SUNNY     34  21  59 S13       30.25F WCI  25
WEST BEND      SUNNY     36  16  44 S5        30.24S WCI  32
JUNEAU         SUNNY     38  11  32 SW9       30.24F WCI  31
$$

LSZ147-162-282300-
LAKE SUPERIOR

STATION/POSITION TIME  TEMP    WIND        PRES    WAVE
                       AIR SEA DIR/SP/G            HT/PER
                 (UTC) (F)     (DEG/KT/KT) (MB)    (FT/S)
DEVILS ISLAND    2200   31     100/  9/ 10 1019.2F
PORT WING        2140   39      10/  3/  7 1018.3F
SAXON HARBOR     2100   37     130/  2/ 11 1019.0F
$$

LMZ867-665-643>646-282300-
LAKE MICHIGAN

STATION/POSITION TIME  TEMP    WIND        PRES    WAVE
                       AIR SEA DIR/SP/G            HT/PER
                 (UTC) (F)     (DEG/KT/KT) (MB)    (FT/S)
NORTHPORT PIER   2100   30     150/ 11/ 16 1024.0F
KEWAUNEE LAKESHO 2100   30     170/ 16/ 17 1023.7F
SHEBOYGAN LAKESH 2200   30     170/ 15/ 17 1026.0F
PORT WASHINGTON  2100   31     160/ 12/ 14 1026.1F
MILWAUKEE LAKESH 2200   29     140/ 16/ 18   N/A
KENOSHA   LAKESH 2200   30     150/ 11/ 14 1025.7F
$$

TC  - TEMPERATURE IN CELSIUS
VSB - VISIBILITY IN STATUTE MILES
WCI - WIND CHILL INDEX
HX  - HEAT INDEX



USA.gov is the U.S. government's official web portal to all federal, state and local government web resources and services.